Location: Newark
(35.1686°N, 108.2815°E)
Time: 04:32:50
(UTC+00:00)

Hubble Space Telescope - Pass Details

Date: 14 April 2020
Orbit: 536 x 540 km, 28.5° (Epoch: 30 May)

Event Time Altitude Azimuth Distance (km) Brightness Sun altitude
Rises 13:20:19 0° 258° (WSW) 2,668 5.0 -23.7°
Reaches altitude 10° 13:23:23 10° 235° (SW) 1,776 3.6 -24.3°
Enters shadow 13:24:33 13° 219° (SW) 1,568 3.2 -24.5°
